DW3753 Weather Reports


Display with metric or nautical units.
time (UTC)temp
F
wind
direction
speed
MPH
gust
MPH
rain 1hr
in
rain 24hr
in
rain mn
in
humidity
%
barometer
mb
20260510064822 76 135 4.0 10.0 0.00 0.00 0.00 68 1008.4
20260510063337 75 82 7.0 21.0 0.00 0.00 0.00 69 1008.6
20260510062336 74 69 4.0 12.0 0.00 0.00 0.00 70 1008.9
20260510061337 75 48 3.0 9.0 0.00 0.00 0.00 69 1009.2
20260510060336 75 50 1.0 4.0 0.00 0.00 0.00 67 1009.2
20260510055337 76 83 1.0 8.0 0.00 0.00 0.00 63 1007.9
20260510054336 76 59 1.0 4.0 0.00 0.00 0.00 62 1007.4
20260510053337 77 133 1.0 4.0 0.00 0.00 0.00 61 1007.3
20260510052811 77 71 1.0 3.0 0.00 0.00 0.00 60 1007.2
20260510051337 77 108 1.0 6.0 0.00 0.00 0.00 60 1006.7
20260510050336 78 135 2.0 6.0 0.00 0.00 0.00 60 1006.6
20260510045337 78 111 2.0 7.0 0.00 0.00 0.00 60 1006.4
20260510044332 78 140 2.0 6.0 0.00 0.00 0.00 60 1006.3
20260510043335 78 161 3.0 8.0 0.00 0.00 0.00 60 1006.3
20260510042331 78 146 2.0 7.0 0.00 0.00 0.00 60 1006.4
20260510041330 79 146 2.0 4.0 0.00 0.00 0.00 60 1006.6
20260510040330 79 192 1.0 4.0 0.00 0.00 0.00 60 1006.7
20260510035330 79 107 1.0 6.0 0.00 0.00 0.00 59 1006.9
20260510034813 79 161 1.0 4.0 0.00 0.00 0.00 59 1006.7
20260510033814 79 71 1.0 4.0 0.00 0.00 0.00 59 1006.7
20260510032331 79 115 1.0 6.0 0.00 0.00 0.00 59 1007.0
20260510031325 79 60 1.0 4.0 0.00 0.00 0.00 60 1007.0
20260510030325 79 88 1.0 6.0 0.00 0.00 0.00 59 1007.0
20260510025324 79 76 1.0 7.0 0.00 0.00 0.00 58 1007.1
20260510024804 79 93 1.0 6.0 0.00 0.00 0.00 57 1006.9
20260510023325 80 81 2.0 6.0 0.00 0.00 0.00 55 1006.7
20260510022324 80 84 1.0 3.0 0.00 0.00 0.00 54 1006.5
20260510021326 80 94 0.0 4.0 0.00 0.00 0.00 53 1006.5
20260510020325 81 84 1.0 3.0 0.00 0.00 0.00 53 1006.3
20260510015328 81 76 1.0 4.0 0.00 0.00 0.00 52 1006.2
20260510014319 82 96 1.0 3.0 0.00 0.00 0.00 51 1006.1
20260510013804 83 84 1.0 3.0 0.00 0.00 0.00 50 1006.0
20260510012320 83 75 1.0 3.0 0.00 0.00 0.00 49 1006.0
20260510011318 83 86 1.0 4.0 0.00 0.00 0.00 49 1005.8
20260510010319 84 74 1.0 4.0 0.00 0.00 0.00 50 1005.6
20260510005805 85 84 3.0 8.0 0.00 0.00 0.00 50 1005.6
20260510004320 85 93 2.0 7.0 0.00 0.00 0.00 49 1005.5
20260510003318 85 82 2.0 8.0 0.00 0.00 0.00 49 1005.5
20260510002319 86 82 2.0 6.0 0.00 0.00 0.00 49 1005.5
20260510001314 86 90 3.0 7.0 0.00 0.00 0.00 49 1005.5
20260510000318 86 73 3.0 7.0 0.00 0.00 0.00 52 1005.5
20260509235744 86 61 4.0 10.0 0.00 0.00 0.00 51 1005.7
20260509234312 87 53 3.0 8.0 0.00 0.00 0.00 52 1005.7
20260509233312 87 63 1.0 4.0 0.00 0.00 0.00 52 1005.7
20260509232310 87 46 1.0 7.0 0.00 0.00 0.00 51 1005.9
20260509231748 88 53 2.0 8.0 0.00 0.00 0.00 49 1005.9
20260509230750 88 81 1.0 3.0 0.00 0.00 0.00 46 1005.9
20260509225316 89 73 0.0 2.0 0.00 0.00 0.00 44 1005.9
20260509224306 89 73 0.0 3.0 0.00 0.00 0.00 45 1005.9
20260509223306 89 191 1.0 5.0 0.00 0.00 0.00 44 1005.9
20260509222757 89 65 1.0 5.0 0.00 0.00 0.00 44 1005.9
20260509221307 89 93 1.0 3.0 0.00 0.00 0.00 46 1005.9
20260509220306 88 42 1.0 3.0 0.00 0.00 0.00 46 1006.0
20260509215306 87 146 2.0 7.0 0.00 0.00 0.00 46 1006.0
20260509214305 87 77 2.0 7.0 0.00 0.00 0.00 46 1006.1
20260509213304 88 64 1.0 5.0 0.00 0.00 0.00 47 1006.2
20260509212309 87 86 2.0 7.0 0.00 0.00 0.00 48 1006.3
20260509211300 87 93 2.0 7.0 0.00 0.00 0.00 48 1006.4
20260509210300 87 69 1.0 6.0 0.00 0.00 0.00 48 1006.6
20260509205306 87 206 1.0 5.0 0.00 0.00 0.00 51 1006.7
20260509204300 87 84 2.0 4.0 0.00 0.00 0.00 49 1006.9
20260509203302 87 63 2.0 6.0 0.00 0.00 0.00 49 1007.1
20260509202300 87 288 1.0 6.0 0.00 0.00 0.00 51 1007.2
20260509201300 87 104 1.0 4.0 0.00 0.00 0.00 49 1007.3
20260509200302 86 23 1.0 7.0 0.00 0.00 0.00 52 1007.4
20260509195717 86 0 0.0 3.0 0.00 0.00 0.00 50 1007.6
20260509195403 86 249 1.0 3.0 0.00 0.00 0.00 51 1007.4
20260509193753 86 90 1.0 4.0 0.00 0.00 0.00 52 1007.7
20260509192258 85 80 1.0 5.0 0.00 0.00 0.00 54 1007.8
20260509191751 85 91 2.0 5.0 0.00 0.00 0.00 53 1007.9
20260509190259 85 313 2.0 6.0 0.00 0.00 0.00 53 1007.9
20260509185313 85 189 1.0 5.0 0.00 0.00 0.00 54 1008.0
20260509184300 84 214 1.0 7.0 0.00 0.00 0.00 54 1008.2
20260509183308 84 71 2.0 6.0 0.00 0.00 0.00 55 1008.3
20260509182308 83 346 3.0 6.0 0.00 0.00 0.00 54 1008.3
20260509181258 83 178 2.0 7.0 0.00 0.00 0.00 55 1008.5
20260509180258 82 340 3.0 8.0 0.00 0.00 0.00 56 1008.5
20260509175259 82 284 4.0 8.0 0.00 0.00 0.00 56 1008.6
20260509174300 81 313 5.0 10.0 0.00 0.00 0.00 56 1008.6
20260509173301 81 310 4.0 7.0 0.00 0.00 0.00 58 1008.7
20260509172300 81 286 5.0 9.0 0.00 0.00 0.00 59 1008.7
20260509171259 80 288 5.0 10.0 0.00 0.00 0.00 59 1008.7
20260509170254 80 340 6.0 10.0 0.00 0.00 0.00 60 1008.9
20260509165253 80 294 6.0 11.0 0.00 0.00 0.00 61 1009.0
20260509164253 79 280 5.0 11.0 0.00 0.00 0.00 59 1009.1
20260509163254 79 301 5.0 11.0 0.00 0.00 0.00 61 1009.2
20260509162253 78 303 7.0 12.0 0.00 0.00 0.00 63 1009.2
20260509161253 77 342 6.0 12.0 0.00 0.00 0.00 62 1009.3
20260509160733 77 279 8.0 14.0 0.00 0.00 0.00 64 1009.1
20260509155254 77 292 8.0 12.0 0.00 0.00 0.00 64 1008.9
20260509154256 76 307 9.0 12.0 0.00 0.00 0.00 64 1008.9
20260509153248 76 298 7.0 14.0 0.00 0.00 0.00 66 1008.9
20260509152248 75 324 8.0 14.0 0.00 0.00 0.00 67 1008.9
20260509151248 74 344 7.0 14.0 0.00 0.00 0.00 68 1008.9
20260509150248 73 318 8.0 13.0 0.00 0.00 0.00 73 1009.0
20260509145248 73 320 6.0 13.0 0.00 0.00 0.00 73 1009.2
20260509143247 71 271 6.0 10.0 0.00 0.00 0.00 81 1009.3
20260509142246 70 279 5.0 10.0 0.00 0.00 0.00 81 1009.3
20260509141247 70 273 5.0 9.0 0.00 0.00 0.00 83 1009.3
20260509140241 70 284 6.0 9.0 0.00 0.00 0.00 82 1009.3
20260509135244 70 284 6.0 10.0 0.00 0.00 0.00 83 1009.3
20260509134242 69 281 7.0 10.0 0.00 0.00 0.00 83 1009.3
20260509133731 69 292 5.0 10.0 0.00 0.00 0.00 84 1009.2
20260509132723 68 287 5.0 10.0 0.00 0.00 0.00 84 1009.2
20260509131241 68 271 5.0 8.0 0.00 0.00 0.00 84 1009.0
20260509130245 67 301 4.0 8.0 0.00 0.00 0.00 84 1009.1
20260509125242 67 328 6.0 10.0 0.00 0.00 0.00 85 1008.9
20260509124242 67 298 5.0 9.0 0.00 0.00 0.00 85 1009.0
20260509123235 66 302 4.0 7.0 0.00 0.01 0.00 85 1009.0
20260509122639 66 321 4.0 8.0 0.00 0.02 0.00 84 1008.9
20260509122317 66 298 4.0 9.0 0.00 0.02 0.00 85 1008.9
20260509120237 66 326 4.0 8.0 0.00 0.03 0.00 84 1008.7
20260509115234 66 299 3.0 5.0 0.00 0.03 0.00 84 1008.7
20260509114235 66 298 3.0 6.0 0.00 0.03 0.00 84 1008.5
20260509113710 67 307 3.0 7.0 0.00 0.07 0.00 85 1008.2
20260509112235 67 300 3.0 7.0 0.00 0.07 0.00 85 1008.2
20260509111239 67 319 3.0 7.0 0.00 0.07 0.00 84 1008.0
20260509110230 68 308 4.0 9.0 0.00 0.07 0.00 84 1007.7
20260509105229 68 309 5.0 9.0 0.00 0.07 0.00 83 1007.8
20260509104230 69 314 4.0 8.0 0.00 0.07 0.00 82 1007.7
20260509103230 69 288 5.0 9.0 0.00 0.07 0.00 80 1007.9
20260509102228 70 298 4.0 8.0 0.00 0.07 0.00 78 1007.9
20260509101231 70 350 3.0 8.0 0.00 0.07 0.00 77 1007.6
20260509100230 70 342 2.0 5.0 0.00 0.09 0.00 78 1007.7
20260509095228 70 322 2.0 4.0 0.00 0.25 0.00 76 1007.6
20260509094230 70 338 1.0 5.0 0.00 0.26 0.00 76 1007.5
20260509093224 70 26 0.0 3.0 0.00 0.26 0.00 74 1007.0
20260509092714 71 355 1.0 7.0 0.00 0.26 0.00 74 1006.6
20260509091224 70 72 2.0 11.0 0.00 0.26 0.00 74 1006.3
20260509090223 69 347 2.0 13.0 0.00 0.26 0.00 80 1005.8
20260509085223 69 207 5.0 9.0 0.00 0.26 0.00 80 1005.2
20260509085145 69 184 5.0 11.0 0.00 0.26 0.00 80 1005.0
20260509083225 69 150 7.0 16.0 0.00 0.26 0.00 79 1005.0
20260509082223 70 227 6.0 19.0 0.00 0.26 0.00 74 1005.3
20260509081224 72 301 0.0 1.0 0.00 0.26 0.00 69 1004.2
20260509080707 73 301 1.0 4.0 0.00 0.26 0.00 64 1004.7
20260509075217 71 324 2.0 4.0 0.00 0.26 0.00 71 1005.8
20260509074216 69 256 5.0 9.0 0.00 0.26 0.00 82 1006.7
20260509073219 69 248 5.0 10.0 0.00 0.26 0.00 86 1007.6
20260509072700 69 200 6.0 10.0 0.00 0.26 0.00 88 1008.0
20260509071216 69 206 7.0 10.0 0.00 0.26 0.00 89 1008.4
20260509071135 69 219 8.0 11.0 0.00 0.26 0.00 89 1008.7
20260509065216 69 231 7.0 12.0 0.00 0.30 0.00 90 1009.2